This demonstration page uses our WeatherBlox Daily Observations layout. Learn more.

40.92945, -100.16068

Hourly Observations for June 8, 2017

Temp ( °F °C ) Dew Point ( °F °C ) Humidity (%) Winds ( mph kmh ) Pressure ( in mb ) Visibility ( mi km ) Precip ( " mm )
12:15 am 00:15 Clear 70 21 52 11.1 53 53 SE 7 11 29.94 1014 10 16.0934 0 0
12:35 am 00:35 Clear 68 20.1 53 11.4 57 57 SSE 7 11 29.97 1015 10 16.0934 0 0
12:55 am 00:55 Clear 68 20 52 11.2 57 57 SSE 9 15 29.97 1015 10 16.0934 0 0
1:15 am 01:15 Clear 67 19.4 53 11.5 60 60 S 8 13 29.97 1015 10 16.0934 0 0
1:35 am 01:35 Partly Cloudy 68 19.9 52 11 57 57 SSE 10 17 29.97 1015 10 16.0934 0 0
1:55 am 01:55 Mostly Cloudy 68 20.1 52 11.1 56 56 S 7 11 29.97 1015 10 16.0934 0 0
2:15 am 02:15 Mostly Cloudy 68 20.1 51 10.5 54 54 SSE 10 17 29.97 1015 10 16.0934 0 0
2:35 am 02:35 Cloudy with Nearby Thunderstorms 68 20.2 50 10 52 52 S 12 19 29.94 1014 10 16.0934 0 0
2:55 am 02:55 Cloudy 68 19.9 51 10.3 54 54 SSW 7 11 29.97 1015 10 16.0934 0 0
3:15 am 03:15 Cloudy with Nearby Thunderstorms 68 20 51 10.5 54 54 NNW 6 9 29.97 1015 10 16.0934 0 0
3:35 am 03:35 Cloudy 67 19.7 53 11.8 60 60 WNW 3 6 29.97 1015 10 16.0934 0 0
3:55 am 03:55 Cloudy 66 18.7 56 13.4 71 71 NNW 5 7 29.97 1015 10 16.0934 0 0
4:15 am 04:15 Mostly Cloudy 65 18.2 56 13.3 73 73 Calm 29.97 1015 10 16.0934 0 0
4:35 am 04:35 Mostly Cloudy 65 18.2 56 13.2 73 73 SE 6 9 29.97 1015 10 16.0934 0 0
4:55 am 04:55 Partly Cloudy 65 18.2 54 12.4 69 69 S 7 11 29.97 1015 10 16.0934 0 0
5:15 am 05:15 Partly Cloudy 65 18.3 53 11.6 65 65 SSE 6 9 29.97 1015 10 16.0934 0 0
5:35 am 05:35 Mostly Cloudy 64 17.9 54 12.3 70 70 S 5 7 29.97 1015 10 16.0934 0 0
5:55 am 05:55 Cloudy with Light Rain 64 17.8 55 12.9 73 73 Calm 29.97 1015 10 16.0934 0 0
6:15 am 06:15 Mostly Cloudy with Light Drizzle 64 18 54 12.1 69 69 SSE 5 7 29.97 1015 10 16.0934 0 0
6:35 am 06:35 Mostly Cloudy 64 17.6 55 12.8 74 74 Calm 29.97 1015 10 16.0934 0 0
6:55 am 06:55 Mostly Cloudy 63 17.3 58 14.6 84 84 Calm 29.97 1015 10 16.0934 0 0
7:15 am 07:15 Partly Cloudy 64 18 56 13.1 73 73 S 5 7 29.97 1015 10 16.0934 0 0
7:35 am 07:35 Sunny 65 18.1 55 12.8 71 71 SW 3 6 29.97 1015 10 16.0934 0 0
7:55 am 07:55 Mostly Cloudy 65 18.3 55 12.7 70 70 SSE 7 11 29.97 1015 10 16.0934 0 0
8:15 am 08:15 Mostly Cloudy 66 18.9 55 12.7 67 67 S 8 13 29.97 1015 10 16.0934 0 0
8:35 am 08:35 Partly Cloudy 66 19.1 55 13 68 68 S 7 11 29.97 1015 10 16.0934 0 0
8:55 am 08:55 Sunny 67 19.4 56 13.4 68 68 Calm 29.97 1015 10 16.0934 0 0
9:15 am 09:15 Sunny 69 20.4 56 13.2 63 63 Calm 29.94 1014 10 16.0934 0 0
9:35 am 09:35 Sunny 69 20.7 57 14 66 66 Calm 29.94 1014 10 16.0934 0 0
9:55 am 09:55 Sunny 71 21.5 59 14.9 66 66 Calm 29.91 1013 10 16.0934 0 0
10:15 am 10:15 Sunny 73 22.6 61 16.1 67 67 Calm 29.91 1013 10 16.0934 0 0
10:35 am 10:35 Sunny 73 23 61 16.2 66 66 Calm 29.91 1013 10 16.0934 0 0
10:55 am 10:55 Partly Cloudy 75 24.1 61 16.1 61 61 Calm 29.88 1012 10 16.0934 0 0
11:15 am 11:15 Partly Cloudy 77 25 60 15.5 56 56 Calm 29.88 1012 10 16.0934 0 0
11:35 am 11:35 Sunny 78 25.3 61 16.1 57 57 E 3 6 29.88 1012 10 16.0934 0 0
11:55 am 11:55 Sunny 78 25.7 60 15.8 54 54 ESE 5 7 29.88 1012 10 16.0934 0 0
12:15 pm 12:15 Sunny 80 26.5 62 16.8 55 55 E 6 9 29.88 1012 10 16.0934 0 0
12:35 pm 12:35 Sunny 81 27.1 61 15.9 50 50 S 8 13 29.83 1010 10 16.0934 0 0
12:55 pm 12:55 Sunny 81 27.3 58 14.5 46 46 SSW 8 13 29.83 1010 10 16.0934 0 0
1:15 pm 13:15 Sunny 82 27.7 58 14.7 45 45 S 7 11 29.83 1010 10 16.0934 0 0
1:35 pm 13:35 Sunny 82 27.8 57 14.1 43 43 SSW 12 19 29.83 1010 10 16.0934 0 0
1:55 pm 13:55 Sunny 83 28.1 59 15.1 45 45 SE 5 7 29.83 1010 10 16.0934 0 0
2:15 pm 14:15 Partly Cloudy 83 28.5 59 14.8 43 43 Calm 29.8 1009 10 16.0934 0 0
2:35 pm 14:35 Mostly Cloudy 83 28.3 59 15.1 45 45 S 13 20 29.8 1009 10 16.0934 0 0
2:55 pm 14:55 Partly Cloudy 83 28.3 58 14.4 43 43 S 8 13 29.8 1009 10 16.0934 0 0
3:15 pm 15:15 Partly Cloudy 83 28.5 59 14.8 43 43 SSW 8 13 29.8 1009 10 16.0934 0 0
3:35 pm 15:35 Partly Cloudy 83 28.6 60 15.3 44 44 SW 12 19 29.8 1009 10 16.0934 0 0
3:55 pm 15:55 Partly Cloudy 83 28.5 59 15.1 44 44 SSW 12 19 29.8 1009 10 16.0934 0 0
4:15 pm 16:15 Partly Cloudy 84 28.7 60 15.5 45 45 SSW 10 17 29.77 1008 10 16.0934 0 0
4:35 pm 16:35 Partly Cloudy 81 27.3 58 14.6 46 46 SSW 10 17 29.77 1008 10 16.0934 0 0
4:55 pm 16:55 Partly Cloudy 82 27.6 59 14.8 46 46 S 13 20 29.77 1008 10 16.0934 0 0
5:15 pm 17:15 Partly Cloudy 84 29 59 15.2 43 43 SSW 13 20 29.77 1008 10 16.0934 0 0
5:35 pm 17:35 Mostly Cloudy 84 28.7 60 15.5 45 45 SSW 12 19 29.74 1007 10 16.0934 0 0
5:55 pm 17:55 Partly Cloudy 83 28.5 58 14.2 42 42 SW 12 19 29.74 1007 10 16.0934 0 0
6:15 pm 18:15 Sunny 83 28.5 58 14.7 43 43 SW 12 19 29.74 1007 10 16.0934 0 0
6:35 pm 18:35 Sunny 83 28.5 57 14 41 41 SSW 15 24 29.74 1007 10 16.0934 0 0
6:55 pm 18:55 Sunny 83 28.2 57 13.7 41 41 SSW 12 19 29.74 1007 10 16.0934 0 0
7:15 pm 19:15 Sunny 82 28 57 14 42 42 SSW 10 17 29.74 1007 10 16.0934 0 0
7:35 pm 19:35 Sunny 82 27.6 58 14.2 44 44 SSW 10 17 29.74 1007 10 16.0934 0 0
7:55 pm 19:55 Sunny 81 27 58 14.2 45 45 SSW 9 15 29.74 1007 10 16.0934 0 0
8:15 pm 20:15 Sunny 79 26.3 58 14.5 48 48 S 8 13 29.74 1007 10 16.0934 0 0
8:35 pm 20:35 Sunny 78 25.5 59 15 52 52 S 8 13 29.77 1008 10 16.0934 0 0
8:55 pm 20:55 Sunny 76 24.5 60 15.4 57 57 S 8 13 29.77 1008 10 16.0934 0 0
9:15 pm 21:15 Clear 74 23.6 60 15.5 61 61 S 8 13 29.77 1008 10 16.0934 0 0
9:35 pm 21:35 Clear 73 23 60 15.5 63 63 S 8 13 29.77 1008 10 16.0934 0 0
9:55 pm 21:55 Clear 73 22.6 60 15.5 64 64 S 9 15 29.77 1008 10 16.0934 0 0
10:15 pm 22:15 Clear 72 22 60 15.5 67 67 S 9 15 29.8 1009 10 16.0934 0 0
10:35 pm 22:35 Clear 72 22 60 15.5 67 67 S 8 13 29.8 1009 10 16.0934 0 0
10:55 pm 22:55 Clear 70 21.2 60 15.5 70 70 S 7 11 29.83 1010 10 16.0934 0 0
11:15 pm 23:15 Clear 70 21 60 15.3 70 70 S 8 13 29.83 1010 10 16.0934 0 0
11:35 pm 23:35 Clear 69 20.7 59 15.2 71 71 S 8 13 29.83 1010 10 16.0934 0 0
11:55 pm 23:55 Clear 69 20.5 59 15.2 72 72 S 9 15 29.83 1010 10 16.0934 0 0

Powered by AerisWeather